Weather History for Grand Marais, MN

Change the Weather History Date:

Friday, October 26, 2012

  Actual Average (KCKC) Record (KCKC)
Temperature  
Mean Temperature 38 °F -  
Max Temperature 42 °F 41 °F 57 °F (2000)
Min Temperature 33 °F 29 °F 12 °F (1997)
Degree Days  
Heating Degree Days 27    
Moisture  
Dew Point 27 °F    
Average Humidity 65    
Maximum Humidity 79    
Minimum Humidity 53    
Precipitation  
Precipitation 0.00 in - - ()
Sea Level Pressure  
Sea Level Pressure 30.12 in    
Wind  
Wind Speed 9 mph (West)    
Max Wind Speed 16 mph    
Max Gust Speed 26 mph    
Averages and records for this station are not official NWS values.
T = Trace of Precipitation, MM = Missing Value Source: NWS Daily Summary

Daily Weather History Graph

Daily Weather History Graph

Search for Another Location

Airport:

Trip Planner

Search our weather history database for the weather conditions in past years. The results will help you decide how hot, cold, wet, or windy it might be!

Date:

Astronomy

Oct. 26, 2012 Rise Set
Actual Time 7:37 AM CDT 5:52 PM CDT
Civil Twilight 7:05 AM CDT 6:24 PM CDT
Nautical Twilight 6:29 AM CDT 7:00 PM CDT
Astronomical Twilight 5:53 AM CDT 7:36 PM CDT
Moon 4:17 PM CDT (10/26) 4:22 AM CDT (10/26)
Length of Visible Light 11h 18m
Length of Day
10h 15m
Waxing Gibbous, 91% of the Moon is Illuminated
Oct 26
Waxing Gibbous
Oct 29
Full
Nov 6
Last Quarter
Nov 13
New
Nov 20
First Quarter

Hourly Weather History & Observations

Time (CDT) Temp. Windchill Dew Point Humidity Pressure Visibility Wind Dir Wind Speed Gust Speed Precip Events Conditions
12:56 AM 39.0 °F 32.3 °F 30.0 °F 70% 29.90 in - West 10.4 mph 20.7 mph N/A   Unknown
1:56 AM 39.0 °F 32.8 °F 32.0 °F 76% 29.92 in - WSW 9.2 mph 17.3 mph N/A   Unknown
2:56 AM 39.9 °F 33.4 °F 32.0 °F 73% 29.95 in - West 10.4 mph 19.6 mph N/A   Unknown
3:56 AM 37.9 °F 32.7 °F 30.9 °F 76% 29.96 in - West 6.9 mph - N/A   Unknown
4:56 AM 37.0 °F 30.4 °F 30.9 °F 79% 29.98 in - WSW 9.2 mph - N/A   Unknown
5:56 AM 37.9 °F 30.9 °F 30.0 °F 73% 30.00 in - West 10.4 mph 20.7 mph N/A   Unknown
6:56 AM 37.9 °F 30.9 °F 28.9 °F 70% 30.02 in - West 10.4 mph 25.3 mph N/A   Unknown
7:56 AM 37.0 °F 31.0 °F 28.0 °F 70% 30.05 in - West 8.1 mph - N/A   Unknown
8:56 AM 39.0 °F 34.8 °F 28.9 °F 67% 30.09 in - WSW 5.8 mph 16.1 mph N/A   Unknown
9:56 AM 39.9 °F 33.4 °F 28.9 °F 65% 30.12 in - West 10.4 mph 23.0 mph N/A   Unknown
10:56 AM 39.9 °F 34.5 °F 27.0 °F 60% 30.15 in - West 8.1 mph 21.9 mph N/A   Unknown
11:56 AM 41.0 °F 34.3 °F 26.1 °F 55% 30.17 in - West 11.5 mph 25.3 mph N/A   Unknown
12:56 PM 41.0 °F 35.8 °F 25.0 °F 53% 30.17 in - West 8.1 mph - N/A   Unknown
1:56 PM 42.1 °F 35.2 °F 27.0 °F 55% 30.18 in - West 12.7 mph 19.6 mph N/A   Unknown
2:56 PM 39.9 °F 32.9 °F 27.0 °F 60% 30.20 in - West 11.5 mph 21.9 mph N/A   Unknown
3:56 PM 39.9 °F 32.5 °F 26.1 °F 58% 30.21 in - West 12.7 mph 26.5 mph N/A   Unknown
4:56 PM 39.0 °F 30.3 °F 24.1 °F 55% 30.22 in - West 16.1 mph 25.3 mph N/A   Unknown
5:56 PM 37.9 °F 31.5 °F 24.1 °F 57% 30.23 in - West 9.2 mph 18.4 mph N/A   Unknown
6:56 PM 37.0 °F 31.0 °F 25.0 °F 62% 30.24 in - West 8.1 mph 17.3 mph N/A   Unknown
8:56 PM 34.0 °F 28.0 °F 23.0 °F 64% 30.26 in - West 6.9 mph - N/A   Unknown
9:56 PM 34.0 °F 31.0 °F 24.1 °F 67% 30.27 in - West 3.5 mph - N/A   Unknown
10:56 PM 34.0 °F 29.8 °F 24.1 °F 67% 30.27 in - West 4.6 mph - N/A   Unknown
11:56 PM 33.1 °F 25.5 °F 24.1 °F 70% 30.28 in - West 9.2 mph - N/A   Unknown